Retour au catalogue

FENGYUN 1C DEB

ActifSSO
NORAD 35108·DEBRIS·🇨🇳 China

Lancé May 10, 1999 depuis Taiyuan Satellite Launch Center

Loading…

Prochains Passages (prochaines 24 heures)

TLE

VieillissantSource: Space-Track

Époque: Sep 7, 2026, 05:54 UTC

1 35108U 99025DKL 26250.24618026  .00000256  00000-0  16432-3 0  9998
2 35108  98.8146 244.0275 0134288  26.4709 334.3238 14.07192863930147

Suivez FENGYUN 1C DEB en temps réel avec AllMySat

Download on the App Store